CZ-2D DEB, 44610

Orbit data source: Space-Track

CZ-2D DEB, 44610 is space debris in SSO originally from a launch on Mon, 09 Oct 2017 UTC launched from the Jiuquan Satellite Launch Center, China (JSC). Debris objects in space refer to the collection of defunct objects orbiting the Earth. Examples of debris include non-operational satellites, rocket bodies, and fragments generated from explosions, collisions, or faulty payload assembly.

Loading next visibility...
CZ-2D DEB details
Identifier
44610, 2017-060C
Orbit
SSO
Last TLE update6 hours ago
Origin
Flag of CNCASC (CN / PRC)
ManufacturerUnknown
MissionSpacecraft
Bus & MotorUnknown
MassUnknown
Launch date (UTC)
2017-10-09 (7 years ago)
Launch vehicleUnknown
Launch site
Jiuquan Satellite Launch Center, China (JSC)
Object type
Payload
Rocket body
Debris
Shape & HBRUnknown
Radar Cross SectionSmall (<0.1 m²)

Expand to show TLE details & history

TLE from 6 hours ago
0 CZ-2D DEB
1 44610U 17060C   24361.28981159  .00014134  00000-0  11997-2 0  9990
2 44610  98.2425 161.4835 0021735  88.6616 271.7094 14.97850024388399
Epoch: 2024-12-26T06:57Z
Definitive object data (Epoch: 2024-12-26T06:57:19.721Z)
Latitude-0.00006°
Longitude-38.12°
Altitude576.158 km
Speed7.573 km/s
True Right ascension10h 45m 56s
True Declination0° 00' 00"
Sunlit
Object was in daylight at TLE epoch
Visualization TLE readout
Latitude-42.54332°
Longitude134.53719°
Altitude600.558 km
Speed7.552 km/s
Apparent Right ascension23h 10m 19s
Apparent Declination-41° 56' 17"
Sunlit
Object is in daylight
Visualization observer readout
Local Sidereal Time12:06:52
Azimuth105.309° ESE
Elevation-79.141°
Doppler factor1
Orbital elements
Apogee altitude585.676 km
Perigee altitude555.47 km
Semi-major axis6,948.71 km
Eccentricity0.0021735
Inclination98.2425°
RAAN161.4835°
Arg. of periapsis88.6616°
True anomaly271.46043°
Mean anomaly271.7094°
Eccentric anomaly271.58492°
Mean motion3.74703 °/min
BSTAR0.0011997
Orbital period96.08 mins
Loading maneuver chart data...
Loading historical data...
Loading historical data...
Loading historical data...
Loading historical data...
Loading historical data...
Loading historical data...
Loading historical data...
Other satellites on launch #60 in the year 2017 (2017-10-09 UTC)

CZ-2D DEB Visibility forecast

Observer location: undefined°, undefined

Span
Click to sort rows by Start time (UTC) header in descending order
Start Az.
Max El. time (UTC)
Max El. Az.
Max El.
End time (UTC)
End Az.
7 mins2024-12-26 23:33:18.761Z24.361° NE2024-12-26 23:36:18.761Z80.834° E38.85°2024-12-26 23:40:18.761Z179.042° S
6 mins2024-12-27 10:21:18.761Z128.009° SE2024-12-27 10:24:18.761Z56.733° ENE28.729°2024-12-27 10:27:18.761Z6.994° NNE
|